Terminal Aerodrome Forecast
Issued by NWS

Home | Current Version | Previous Version | Text Only | Print | Product List | Glossary On
Versions: 1 2 3 4 5 6 7 8 9 10 11 12 13 14 15 16 17 18 19 20 21 22 23 24 25
000
FTAK31 PANC 170535
TAFAEN
TAF
PAEN 170535Z 1706/1806 02004KT P6SM OVC080
     FM171500 02015G20KT P6SM -SHRA BKN050=

USA.gov is the U.S. government's official web portal to all federal, state and local government web resources and services.